Location: Oberkirch
(48.5323°N, 8.0787°E)
Time: 22:41:49
(UTC+00:00)

CAS-6 - Visible Passes

Search period start: 12 March 2026 00:00
Search period end: 22 March 2026 00:00
Orbit: 599 x 620 km, 97.8° (Epoch: 12 March)

Date Brightness Start Highest point End Pass type
(mag) Time Alt. Az. Time Alt. Az. Time Alt. Az.
12 Mar ? 20:40:25 15° N 20:40:25 15° N 20:41:11 10° N visible
13 Mar ? 20:54:26 15° N 20:54:26 15° N 20:55:18 10° N visible
14 Mar ? 21:08:25 16° N 21:08:25 16° N 21:09:20 10° N visible
15 Mar ? 19:45:29 10° NNE 19:45:29 10° NNE 19:45:40 10° NNE visible
15 Mar ? 21:22:25 16° NNW 21:22:25 16° NNW 21:23:18 10° NNW visible
16 Mar ? 19:59:29 13° NNE 19:59:29 13° NNE 20:00:16 10° NNE visible
16 Mar ? 21:36:26 15° NNW 21:36:26 15° NNW 21:37:13 10° NNW visible
17 Mar ? 20:13:29 15° NNE 20:13:29 15° NNE 20:14:37 10° NNE visible
17 Mar ? 21:50:24 14° NNW 21:50:24 14° NNW 21:51:04 10° NNW visible
18 Mar ? 20:27:28 18° NNE 20:27:28 18° NNE 20:28:51 10° N visible
18 Mar ? 22:04:24 12° NW 22:04:24 12° NW 22:04:50 10° NNW visible
19 Mar ? 20:41:27 20° NNE 20:41:27 20° NNE 20:42:59 10° N visible
19 Mar ? 22:18:23 10° NW 22:18:23 10° NW 22:18:30 10° NW visible
20 Mar ? 20:55:27 22° N 20:55:27 22° N 20:57:04 10° N visible
21 Mar ? 21:09:25 23° N 21:09:25 23° N 21:11:04 10° N visible
